Fortuna, CA

12:50 PM PDT on July 23, 2016 (GMT -0700)
Rohnerville

Weather History for KFOT - May, 2014

Change the Weather History Date:

Monday, May 19, 2014

  Actual Average (KEKA) Record (KEKA)
Temperature  
Mean Temperature 54 °F 54 °F  
Max Temperature 59 °F 60 °F 78 °F (1952)
Min Temperature 48 °F 48 °F 40 °F (2003)
Degree Days  
Heating Degree Days 12 11  
Month to date heating degree days 224  
Since 1 July heating degree days 4045  
Cooling Degree Days 0 0  
Month to date cooling degree days 0  
Year to date cooling degree days 0  
Growing Degree Days 4 (Base 50)    
Moisture  
Dew Point 50 °F    
Average Humidity 87    
Maximum Humidity 100    
Minimum Humidity 72    
Precipitation  
Precipitation 0.02 in 0.05 in 0.56 in (1925)
Month to date precipitation 1.19  
Year to date precipitation 21.94  
Snow  
Snow 0.00 in 0.00 in - ()
Month to date snowfall 0.0  
Since 1 July snowfall 0.2  
Snow Depth -    
Sea Level Pressure  
Sea Level Pressure 29.99 in    
Wind  
Wind Speed 6 mph (WNW)    
Max Wind Speed 12 mph    
Max Gust Speed -    
Visibility 10 miles    
Events      
T = Trace of Precipitation, MM = Missing Value Source: NWS Daily Summary

Daily Weather History Graph

Daily Weather History Graph

Search for Another Location

Airport or City:

Trip Planner

Search our weather history database for the weather conditions in past years. The results will help you decide how hot, cold, wet, or windy it might be!

Date:

Astronomy

May. 19, 2014 Rise Set
Actual Time 5:56 AM PDT 8:30 PM PDT
Civil Twilight 5:24 AM PDT 9:01 PM PDT
Nautical Twilight 4:45 AM PDT 9:41 PM PDT
Astronomical Twilight 4:01 AM PDT 10:25 PM PDT
Moon 12:21 AM PDT (5/19) 11:00 AM PDT (5/19)
Length of Visible Light 15h 36m
Length of Day
14h 34m
Waning Gibbous, 70% of the Moon is Illuminated
May 19
Waning Gibbous
May 21
Last Quarter
May 28
New
Jun 5
First Quarter
Jun 12
Full

Hourly Weather History & Observations

Time (PDT) Temp. Dew Point Humidity Pressure Visibility Wind Dir Wind Speed Gust Speed Precip Events Conditions
12:15 AM 51.8 °F 50.0 °F 94% 30.04 in 10.0 mi SSE 3.5 mph - N/A   Overcast
12:35 AM 51.8 °F 50.0 °F 94% 30.03 in 10.0 mi South 3.5 mph - N/A   Overcast
12:55 AM 51.8 °F 50.0 °F 94% 30.03 in 10.0 mi SE 3.5 mph - N/A   Overcast
1:15 AM 50.0 °F 50.0 °F 100% 30.02 in 10.0 mi SE 3.5 mph - N/A   Overcast
1:35 AM 50.0 °F 50.0 °F 100% 30.01 in 10.0 mi SSE 4.6 mph - N/A   Overcast
1:55 AM 50.0 °F 50.0 °F 100% 30.01 in 10.0 mi SSE 4.6 mph - N/A   Overcast
2:35 AM 50.0 °F 50.0 °F 100% 30.01 in 10.0 mi ESE 5.8 mph - N/A   Overcast
2:55 AM 50.0 °F 50.0 °F 100% 30.00 in 10.0 mi ESE 4.6 mph - N/A   Overcast
3:15 AM 50.0 °F 48.2 °F 94% 30.00 in 10.0 mi SE 5.8 mph - N/A   Overcast
3:35 AM 50.0 °F 48.2 °F 94% 30.00 in 10.0 mi SSE 5.8 mph - N/A   Overcast
3:55 AM 50.0 °F 50.0 °F 100% 29.99 in 10.0 mi SSE 4.6 mph - N/A   Overcast
4:15 AM 50.0 °F 48.2 °F 94% 29.99 in 10.0 mi ESE 5.8 mph - N/A   Overcast
4:35 AM 50.0 °F 48.2 °F 94% 29.99 in 10.0 mi SE 6.9 mph - N/A   Overcast
4:55 AM 50.0 °F 48.2 °F 94% 29.98 in 10.0 mi SE 5.8 mph - N/A   Overcast
5:15 AM 50.0 °F 48.2 °F 94% 29.98 in 10.0 mi SE 4.6 mph - N/A   Overcast
5:35 AM 50.0 °F 48.2 °F 94% 29.98 in 10.0 mi ESE 5.8 mph - N/A   Overcast
6:35 AM 48.2 °F 48.2 °F 100% 29.98 in 10.0 mi SE 5.8 mph - N/A   Mostly Cloudy
7:35 AM 50.0 °F 50.0 °F 100% 29.98 in 10.0 mi SE 5.8 mph - N/A   Overcast
7:55 AM 51.8 °F 50.0 °F 94% 29.98 in 10.0 mi SE 4.6 mph - N/A   Mostly Cloudy
8:15 AM 53.6 °F 50.0 °F 88% 29.97 in 10.0 mi ESE 4.6 mph - N/A   Clear
8:35 AM 55.4 °F 50.0 °F 82% 29.97 in 10.0 mi ESE 3.5 mph - N/A   Clear
8:55 AM 57.2 °F 50.0 °F 77% 29.97 in 10.0 mi Calm Calm - N/A   Clear
9:15 AM 57.2 °F 48.2 °F 72% 29.97 in 10.0 mi Calm Calm - N/A   Clear
9:35 AM 57.2 °F 50.0 °F 77% 29.97 in 10.0 mi WNW 4.6 mph - N/A   Mostly Cloudy
9:55 AM 59.0 °F 50.0 °F 72% 29.97 in 10.0 mi NW 6.9 mph - N/A   Mostly Cloudy
10:15 AM 57.2 °F 50.0 °F 77% 29.97 in 10.0 mi WNW 9.2 mph - N/A   Overcast
10:35 AM 55.4 °F 50.0 °F 82% 29.98 in 5.0 mi West 9.2 mph - N/A   Overcast
10:55 AM 55.4 °F 53.6 °F 94% 29.98 in 10.0 mi WNW 8.1 mph - N/A   Scattered Clouds
11:15 AM 55.4 °F 51.8 °F 88% 29.98 in 5.0 mi West 8.1 mph - N/A   Scattered Clouds
11:35 AM 55.4 °F 50.0 °F 82% 29.98 in 5.0 mi Calm Calm - 0.01 in   Clear
11:55 AM 55.4 °F 50.0 °F 82% 29.99 in 8.0 mi Calm Calm - 0.01 in   Clear
12:15 PM 57.2 °F 50.0 °F 77% 29.98 in 10.0 mi WSW 3.5 mph - N/A   Partly Cloudy
12:35 PM 55.4 °F 53.6 °F 94% 29.99 in 2.5 mi WNW 4.6 mph - N/A   Partly Cloudy
12:55 PM 55.4 °F 53.6 °F 94% 29.99 in 6.0 mi NNW 6.9 mph - 0.01 in   Partly Cloudy
1:15 PM 57.2 °F 53.6 °F 88% 29.99 in 10.0 mi North 8.1 mph - N/A   Mostly Cloudy
1:35 PM 57.2 °F 51.8 °F 82% 29.99 in 10.0 mi NNW 10.4 mph - N/A   Overcast
1:55 PM 55.4 °F 50.0 °F 82% 29.99 in 7.0 mi NNW 10.4 mph - N/A   Mostly Cloudy
2:15 PM 55.4 °F 50.0 °F 82% 29.99 in 10.0 mi NNW 11.5 mph - N/A   Mostly Cloudy
2:35 PM 55.4 °F 50.0 °F 82% 29.99 in 10.0 mi NW 8.1 mph - N/A   Mostly Cloudy
2:55 PM 57.2 °F 50.0 °F 77% 29.99 in 10.0 mi NNW 10.4 mph - N/A   Mostly Cloudy
3:15 PM 57.2 °F 51.8 °F 82% 29.98 in 10.0 mi NW 10.4 mph - N/A   Partly Cloudy
3:55 PM 57.2 °F 50.0 °F 77% 29.97 in 10.0 mi NNW 9.2 mph - N/A   Mostly Cloudy
4:15 PM 57.2 °F 50.0 °F 77% 29.97 in 10.0 mi WNW 8.1 mph - N/A   Mostly Cloudy
4:35 PM 57.2 °F 50.0 °F 77% 29.96 in 10.0 mi NW 6.9 mph - N/A   Overcast
4:55 PM 57.2 °F 50.0 °F 77% 29.96 in 10.0 mi WNW 10.4 mph - N/A   Overcast
5:15 PM 57.2 °F 50.0 °F 77% 29.96 in 10.0 mi WNW 10.4 mph - N/A   Overcast
5:35 PM 57.2 °F 50.0 °F 77% 29.97 in 10.0 mi WNW 10.4 mph - N/A   Overcast
5:55 PM 57.2 °F 50.0 °F 77% 29.96 in 10.0 mi NW 11.5 mph - N/A   Overcast
6:15 PM 55.4 °F 48.2 °F 77% 29.96 in 10.0 mi NW 8.1 mph - N/A   Overcast
6:35 PM 57.2 °F 48.2 °F 72% 29.96 in 10.0 mi NW 9.2 mph - N/A   Overcast
6:55 PM 57.2 °F 48.2 °F 72% 29.97 in 10.0 mi NW 8.1 mph - N/A   Overcast
7:15 PM 55.4 °F 48.2 °F 77% 29.98 in 10.0 mi NW 8.1 mph - N/A   Overcast
7:35 PM 55.4 °F 48.2 °F 77% 29.98 in 10.0 mi NW 6.9 mph - N/A   Overcast
7:55 PM 55.4 °F 48.2 °F 77% 29.98 in 10.0 mi NW 8.1 mph - N/A   Overcast
8:15 PM 55.4 °F 48.2 °F 77% 29.98 in 10.0 mi NW 6.9 mph - N/A   Scattered Clouds
8:35 PM 53.6 °F 48.2 °F 82% 29.99 in 10.0 mi NW 6.9 mph - N/A   Partly Cloudy
8:55 PM 53.6 °F 50.0 °F 88% 29.99 in 10.0 mi NW 6.9 mph - N/A   Mostly Cloudy
9:15 PM 53.6 °F 50.0 °F 88% 29.99 in 10.0 mi WNW 6.9 mph - N/A   Overcast
9:35 PM 51.8 °F 50.0 °F 94% 30.00 in 10.0 mi WNW 5.8 mph - N/A   Mostly Cloudy
9:55 PM 50.0 °F 50.0 °F 100% 30.00 in 10.0 mi WNW 5.8 mph - N/A   Scattered Clouds
10:15 PM 50.0 °F 50.0 °F 100% 30.00 in 10.0 mi WNW 6.9 mph - N/A   Partly Cloudy
10:35 PM 50.0 °F 50.0 °F 100% 30.01 in 10.0 mi WNW 6.9 mph - N/A   Mostly Cloudy
10:55 PM 50.0 °F 50.0 °F 100% 30.00 in 10.0 mi WNW 6.9 mph - N/A   Overcast
11:15 PM 51.8 °F 50.0 °F 94% 30.00 in 10.0 mi WNW 8.1 mph - N/A   Overcast
11:35 PM 51.8 °F 51.8 °F 100% 30.00 in 10.0 mi NW 9.2 mph - N/A   Overcast
11:55 PM 53.6 °F 50.0 °F 88% 30.00 in 10.0 mi NW 8.1 mph - N/A   Overcast